{"data":{"norad_id":44340,"epoch":"2026-09-20T04:06:57.808224Z","epoch_age_seconds":46455,"freshness":"FRESH","line1":"1 44340U 19036B   26263.17150241  .00003323  00000+0  44357-3 0  9990","line2":"2 44340  24.0001 318.7555 0007016 200.7282 159.2930 14.75316170386532","mean_motion":14.7531617,"eccentricity":0.0007016,"inclination_deg":24.0001,"raan_deg":318.7555,"arg_perigee_deg":200.7282,"mean_anomaly_deg":159.293,"bstar":0.00044357,"rev_number":38653,"period_min":97.606196507695,"perigee_km":639.22097605983,"apogee_km":649.07464610674,"semimajor_km":7022.2848110833,"source":"CELESTRAK","updated_at":"2026-09-20T09:00:14.461006Z"}}